Simultaneous Nadir Overpasses (SNOs) Predictions

Prediction of SNOs between GOES-17 and LANDSAT-8 Satellite Orbit:

Table of predicted SNOs for the next 14.0 days since TLE Epoch: 7/6/2024
Index Date Time (GOES-17) GOES-17 Lat,Lon LANDSAT-8 Lat,Lon Distance(km) Time Diff (sec)
1 07/06/2024 05:27:20 -0.00,-104.70 -0.79,-108.48 429.82 80
2 07/07/2024 16:51:07 -0.01,-104.71 -0.96,-100.34 498.19 80
3 07/08/2024 05:15:11 0.01,-104.69 -0.18,-105.52 94.34 80
4 07/10/2024 05:00:21 0.02,-104.70 0.46,-102.57 241.74 80
5 07/10/2024 17:24:16 -0.02,-104.72 0.63,-107.72 342.28 80
6 07/12/2024 17:09:26 -0.02,-104.72 -0.03,-104.77 5.89 80
7 07/14/2024 16:57:15 -0.02,-104.73 -0.65,-101.81 331.27 80
8 07/15/2024 05:21:19 0.02,-104.71 -0.47,-107.00 260.86 80
9 07/17/2024 05:06:28 0.02,-104.71 0.17,-104.04 75.83 80
10 07/19/2024 04:54:16 0.02,-104.70 0.77,-101.08 412.16 80
11 07/19/2024 17:18:12 -0.02,-104.72 0.30,-106.24 172.01 80
